This is the latest recevied weather packets stored in our database for station/object OK3MS-5. If no packets are shown the sender has not sent any weather packets the latest 10 day(s).
| Time | Temp. | Humidity | Pressure | Rain* | Wind** | Luminosity | Snow |
|---|---|---|---|---|---|---|---|
| 1787836805 | 27.22° C | 48% | 1013.9 hPa | 0 mm | - | 562 W/m² | - |
| 1787836504 | 26.67° C | 50% | 1014 hPa | 0 mm | - | 508 W/m² | - |
| 1787836204 | 26.11° C | 50% | 1014.1 hPa | 0 mm | - | 628 W/m² | - |
| 1787835904 | 26.11° C | 51% | 1014.3 hPa | 0 mm | - | 637 W/m² | - |
| 1787835603 | 26.11° C | 50% | 1014.2 hPa | 0 mm | - | 262 W/m² | - |
| 1787835304 | 26.11° C | 50% | 1014 hPa | 0 mm | - | 243 W/m² | - |
| 1787835005 | 26.11° C | 50% | 1014 hPa | 0 mm | - | 651 W/m² | - |
| 1787834704 | 26.11° C | 50% | 1014 hPa | 0 mm | - | 416 W/m² | - |
| 1787834404 | 26.11° C | 49% | 1014.2 hPa | 0 mm | - | 302 W/m² | - |
| 1787834105 | 26.11° C | 50% | 1014.2 hPa | 0 mm | - | 337 W/m² | - |
| 1787833803 | 26.11° C | 50% | 1014.4 hPa | 0 mm | - | 375 W/m² | - |
| 1787833503 | 26.11° C | 50% | 1014.3 hPa | 0 mm | - | 475 W/m² | - |
| 1787833202 | 26.67° C | 49% | 1014.3 hPa | 0 mm | - | 446 W/m² | - |
| 1787832904 | 26.11° C | 50% | 1014.4 hPa | 0 mm | - | 488 W/m² | - |
| 1787832604 | 26.67° C | 49% | 1014.4 hPa | 0 mm | - | 603 W/m² | - |
| 1787832306 | 26.67° C | 50% | 1014.4 hPa | 0 mm | - | 632 W/m² | - |
| 1787832004 | 26.67° C | 50% | 1014.6 hPa | 0 mm | - | 631 W/m² | - |
| 1787831706 | 26.11° C | 50% | 1014.7 hPa | 0 mm | - | 646 W/m² | - |
| 1787831403 | 26.67° C | 50% | 1014.6 hPa | 0 mm | - | 624 W/m² | - |
| 1787831105 | 26.67° C | 50% | 1014.6 hPa | 0 mm | - | 686 W/m² | - |
| 1787830803 | 26.11° C | 51% | 1014.6 hPa | 0 mm | - | 636 W/m² | - |
| 1787830505 | 25.56° C | 51% | 1014.7 hPa | 0 mm | - | 663 W/m² | - |
| 1787830204 | 26.11° C | 51% | 1014.7 hPa | 0 mm | - | 615 W/m² | - |
| 1787829904 | 25.56° C | 52% | 1014.8 hPa | 0 mm | - | 674 W/m² | - |
| 1787829603 | 25.56° C | 52% | 1015 hPa | 0 mm | - | 700 W/m² | - |
* Rain latest hour (hover to see other rain measurements)
** Current wind speed in m/s (hover to see current wind gust speed)